Temp_Advection
nan nan nan nan nan nan nan nan nan nan nan nan nan nan nan nan nan nan nan nan nan nan nan nan nan nan nan
nan -0 -0 -0 -1 -0 -0 -0 -0 -0 -1 -1 -0 -0 -0 -1 -0 -0 -0 -0 -0 -0 -0 -0 -0 -0 nan
nan -0 -1 -0 -0 -0 -0 -0 -1 -0 -0 -0 -0 -1 -0 -1 -1 -1 -0 -0 -0 -0 -0 -0 -0 -0 nan
nan -0 -1 -1 -0 -0 -0 -0 -0 -0 -0 -1 -0 0 0 0 -0 0 -0 -1 -1 -1 -0 -0 -0 -0 nan
nan -0 -1 -0 0 -0 -0 -0 -1 -0 0 -1 -1 -0 -0 0 0 1 1 -1 -1 -0 -0 -0 -0 -0 nan
nan 0 -0 -0 -0 -0 -0 0 -0 -1 -0 -2 -1 -1 -0 -1 0 0 -0 -1 -1 -1 -0 -0 -0 -0 nan
nan -0 -0 -0 -0 -0 -0 -0 0 1 1 -2 -2 -1 -0 -1 -1 1 1 -0 -1 -1 -1 -0 -0 -1 nan
nan -0 -0 -0 -0 -0 0 -0 -1 -1 1 -0 -2 -2 -2 -1 -1 -1 1 1 0 -1 -1 -0 -0 -1 nan
nan -0 0 0 0 -0 0 0 -1 -2 0 0 -1 -1 -4 -3 -1 -0 1 0 -1 0 1 -0 -1 -1 nan
nan -0 0 1 1 1 0 -0 -0 -2 0 1 -0 -0 -2 -3 -2 -2 -1 1 0 -0 0 1 1 0 nan
nan -1 -1 -0 0 1 2 1 0 -3 0 3 -0 0 -0 -3 -4 -2 -2 -1 -0 -1 -1 -0 1 2 nan
nan -1 -1 -1 -0 0 1 1 1 1 -0 2 1 0 0 -0 -3 -3 -2 -1 -0 -1 -1 -1 -1 1 nan
nan -0 0 -0 -0 -0 -0 0 -1 1 1 1 1 0 1 1 -1 -2 -2 -3 -0 0 -1 -1 -1 -0 nan
nan -0 0 -0 -0 0 -0 -0 -2 -2 0 1 2 1 0 0 0 -1 0 -0 -2 -0 -0 -2 -0 0 nan
nan -0 -0 -0 -0 0 0 1 -0 -2 -2 0 1 1 1 0 -0 -0 -0 0 -0 0 0 -1 -1 0 nan
nan 0 -0 -0 -1 0 0 1 1 -0 -1 -1 -0 -0 0 0 -0 -0 -0 -0 0 1 0 -1 -2 -1 nan
nan nan nan nan nan nan nan nan nan nan nan nan nan nan nan nan nan nan nan nan nan nan nan nan nan nan nan
Wind_Speed
37 34 31 33 39 32 37 36 38 39 33 33 31 32 35 35 36 37 37 37 36 35 35 35 35 35 36
34 33 32 34 38 36 35 31 40 35 30 32 35 34 35 36 35 35 35 35 35 35 35 35 36 37 37
38 37 40 36 36 35 37 40 34 34 35 32 37 34 34 36 33 34 35 36 35 35 35 35 35 35 36
36 40 36 38 31 37 40 33 39 44 43 36 35 35 36 34 34 34 32 32 32 32 32 32 33 33 34
35 37 39 28 39 34 35 45 46 43 40 37 43 42 40 37 36 33 31 30 32 33 34 34 34 33 33
38 36 43 36 33 36 44 43 45 38 36 50 40 43 43 42 37 34 35 32 32 34 35 34 34 35 35
36 35 38 37 38 43 41 42 41 47 45 45 42 48 46 43 41 38 35 34 32 30 29 30 31 33 35
33 34 33 36 37 38 36 40 44 42 38 42 47 49 49 48 43 35 29 29 27 28 30 33 34 35 36
28 28 29 30 28 30 35 38 44 43 41 40 44 47 50 48 37 34 39 35 33 29 29 31 32 33 34
33 33 28 27 27 26 30 34 40 45 40 34 43 39 35 39 34 45 42 39 35 33 30 28 27 30 33
33 30 29 28 30 32 31 33 39 42 38 33 40 41 34 47 48 47 45 42 41 36 29 25 27 29 34
30 31 32 33 34 34 32 29 30 37 38 32 37 37 40 45 50 49 45 42 40 36 29 32 31 33 31
30 31 32 34 34 32 30 31 33 33 32 30 31 33 35 41 46 47 47 45 32 34 38 37 39 39 39
28 31 33 34 33 32 35 34 37 38 34 31 30 32 35 37 40 45 42 42 42 41 39 42 40 39 37
29 33 33 33 33 33 33 35 35 38 38 34 34 32 33 35 38 39 40 41 42 42 42 41 41 38 37
30 32 33 33 34 35 35 34 37 38 38 39 39 40 41 36 27 33 38 39 42 40 38 39 43 39 37
31 32 32 33 35 36 35 35 36 37 37 39 38 39 38 38 44 29 32 40 39 41 37 37 40 39 33
Wind_Direction
302 308 305 301 307 307 308 307 301 305 301 299 298 297 297 294 294 291 289 288 286 284 282 280 279 278 275
303 305 302 305 304 310 312 305 306 306 300 297 296 297 295 295 294 292 290 288 286 284 283 280 279 278 276
303 304 307 311 315 315 311 309 306 296 300 297 299 297 298 297 295 292 289 286 285 283 281 280 280 278 277
307 309 311 319 313 309 310 307 301 307 307 306 309 303 305 301 300 299 293 290 287 284 282 280 278 276 276
308 306 312 308 311 312 302 304 309 311 313 307 313 312 311 313 314 311 301 297 290 286 284 281 280 278 277
307 306 305 307 305 304 307 309 305 313 304 308 313 312 316 317 315 305 298 296 292 287 282 279 278 277 275
301 304 304 305 305 306 309 308 301 302 308 304 315 314 317 315 313 313 302 297 292 287 283 282 281 278 276
300 298 299 301 303 306 305 300 298 302 309 300 312 307 315 313 314 314 314 312 301 292 285 282 281 279 277
300 299 301 300 299 300 298 301 300 302 306 299 307 306 312 311 316 319 317 308 305 300 294 288 285 284 281
309 310 311 313 310 304 303 301 300 301 308 301 304 309 310 307 310 315 317 319 318 311 304 297 292 289 287
308 313 320 320 320 319 313 302 299 296 311 304 303 306 293 302 309 314 317 319 318 313 305 300 301 299 290
314 317 321 323 322 319 315 311 309 306 313 313 302 302 302 300 301 312 315 316 316 314 312 310 306 309 296
315 318 322 323 322 323 320 319 316 318 321 319 310 309 305 298 298 306 310 314 314 312 313 312 312 311 304
319 323 325 326 325 327 324 326 324 326 328 324 320 316 309 307 306 302 310 297 313 312 312 311 310 310 308
326 326 326 326 328 329 328 327 321 326 328 332 331 325 317 312 308 311 307 304 307 308 307 300 310 312 309
327 326 327 327 329 331 328 328 326 327 327 332 332 332 327 314 301 298 299 302 312 313 308 303 306 311 311
329 330 330 329 330 330 332 330 328 328 329 332 332 326 311 309 320 315 304 315 317 318 315 307 303 309 315
Height
1454 1451 1448 1444 1440 1436 1432 1427 1422 1419 1415 1412 1408 1405 1401 1397 1393 1389 1385 1382 1379 1377 1375 1373 1371 1371 1370
1448 1445 1442 1438 1433 1428 1423 1419 1415 1410 1408 1405 1400 1396 1391 1387 1383 1379 1375 1372 1369 1366 1364 1362 1360 1359 1358
1440 1439 1434 1430 1424 1420 1416 1411 1407 1403 1399 1395 1390 1385 1381 1377 1373 1369 1365 1361 1358 1355 1353 1351 1349 1347 1346
1436 1431 1427 1423 1419 1414 1407 1404 1398 1393 1389 1385 1380 1376 1370 1366 1362 1357 1353 1350 1347 1344 1342 1340 1338 1337 1335
1429 1425 1420 1417 1413 1408 1402 1395 1389 1385 1377 1374 1369 1364 1359 1355 1350 1345 1342 1340 1337 1334 1331 1329 1327 1325 1324
1423 1419 1415 1411 1407 1403 1396 1388 1376 1379 1372 1364 1362 1353 1349 1344 1340 1336 1333 1329 1326 1324 1321 1318 1316 1314 1312
1418 1414 1408 1404 1400 1394 1388 1382 1375 1370 1366 1354 1352 1343 1339 1334 1331 1326 1322 1319 1315 1312 1310 1308 1306 1303 1301
1412 1407 1403 1398 1393 1387 1381 1374 1367 1362 1360 1347 1342 1334 1327 1322 1319 1316 1312 1308 1306 1304 1301 1298 1295 1292 1289
1404 1399 1396 1391 1387 1381 1374 1367 1356 1352 1351 1344 1334 1325 1317 1309 1307 1305 1302 1299 1296 1291 1288 1285 1282 1279 1276
1394 1390 1386 1382 1379 1375 1368 1361 1354 1343 1343 1338 1329 1324 1306 1299 1298 1295 1290 1287 1283 1280 1276 1273 1271 1267 1262
1388 1383 1379 1375 1370 1366 1361 1357 1348 1340 1335 1332 1322 1317 1313 1294 1285 1284 1281 1274 1271 1266 1264 1262 1259 1256 1250
1383 1378 1373 1367 1362 1358 1353 1348 1342 1334 1326 1324 1316 1311 1303 1293 1279 1274 1271 1267 1262 1255 1252 1250 1246 1242 1239
1377 1372 1367 1361 1355 1349 1344 1338 1331 1325 1320 1315 1309 1302 1296 1287 1277 1268 1260 1256 1253 1248 1243 1238 1233 1229 1224
1372 1366 1360 1354 1348 1343 1335 1329 1322 1314 1311 1307 1301 1295 1287 1281 1274 1262 1256 1249 1242 1238 1234 1227 1222 1218 1213
1366 1360 1354 1349 1342 1337 1330 1323 1317 1308 1300 1297 1293 1286 1279 1273 1264 1255 1248 1241 1235 1230 1225 1217 1209 1205 1199
1361 1356 1350 1343 1336 1330 1325 1319 1310 1303 1296 1289 1282 1274 1266 1262 1259 1249 1241 1233 1227 1220 1215 1207 1196 1190 1187
1357 1351 1344 1338 1333 1325 1319 1312 1305 1298 1291 1285 1278 1272 1261 1250 1243 1244 1234 1225 1217 1210 1204 1197 1187 1178 1175